Wind_Speed
7 7 8 9 8 9 10 12 13 15 16 16 17 17 16 15 14 11 12 14 16 16 15 14 11 9 8 8 8 7 7 7 8 8 8 8 9 6 16 22 30 26 29
5 5 6 7 7 6 8 9 11 13 13 14 16 17 17 16 15 14 12 12 8 7 9 7 7 8 7 4 3 3 3 1 2 4 6 5 7 9 10 15 20 29 29
1 4 3 5 5 4 8 9 9 11 12 12 14 14 16 17 15 14 13 12 15 16 18 16 16 13 9 5 5 5 5 13 13 12 11 10 8 7 10 10 12 15 32
1 3 2 3 3 4 2 7 10 9 10 12 11 11 14 15 16 15 13 11 12 12 16 17 14 16 15 15 17 16 15 17 16 13 13 12 10 9 9 8 9 12 28
3 2 2 1 4 2 1 5 8 9 10 11 12 10 12 13 14 14 14 14 14 12 12 16 16 16 17 17 17 15 21 18 14 11 12 11 11 8 6 6 8 10 17
5 4 5 4 2 2 1 4 7 8 10 9 11 9 9 10 12 13 13 13 13 12 12 12 12 15 15 18 16 15 18 14 13 11 10 13 12 12 11 7 6 8 13
7 8 6 6 4 4 4 2 5 7 8 9 10 9 8 8 9 11 11 11 12 12 12 12 10 10 12 16 16 16 12 11 11 11 11 12 11 11 10 9 8 6 8
10 9 9 7 8 9 4 5 5 6 6 8 7 7 6 5 6 7 8 10 10 10 11 11 11 11 11 11 13 13 13 12 10 11 11 12 11 12 12 13 13 11 9
12 12 9 9 8 8 6 5 6 6 3 8 6 4 2 3 6 4 6 7 9 9 9 11 11 11 10 10 11 12 13 13 13 10 11 12 13 14 16 17 17 16 14
11 12 12 10 9 6 9 8 7 5 6 5 5 6 2 2 2 5 3 5 7 7 8 8 9 9 10 9 10 13 12 11 14 13 13 10 11 13 17 20 20 18 17
12 12 14 12 13 11 9 9 10 9 8 6 5 5 7 7 3 2 4 6 5 6 6 7 8 8 9 8 8 9 11 11 11 14 15 14 15 13 15 18 18 20 20
12 16 15 16 14 14 14 13 13 13 10 10 8 8 8 9 6 3 5 7 5 6 5 6 6 7 8 8 8 10 11 10 11 11 10 13 15 16 17 17 18 15 13
14 15 17 18 16 15 15 14 16 14 15 13 11 8 7 11 6 4 6 7 6 8 5 5 5 6 7 7 8 11 11 11 11 11 10 11 13 15 16 15 15 15 13
15 15 16 16 18 17 16 14 15 17 14 16 15 11 8 10 7 7 6 7 8 6 8 5 7 6 7 6 8 10 9 11 11 11 11 12 12 14 15 14 13 11 9
15 16 16 16 16 17 18 17 15 15 16 17 15 13 11 9 10 10 9 9 7 8 8 9 7 9 8 7 7 7 8 10 10 11 11 13 13 14 14 13 14 14 13
17 17 16 16 16 16 17 18 16 15 17 16 11 10 11 10 12 13 11 11 10 9 5 8 8 12 11 9 9 9 8 9 9 10 11 12 13 14 13 14 14 14 14
18 19 19 18 16 16 17 17 18 18 17 16 15 14 14 14 12 13 13 12 12 12 8 9 11 13 12 13 10 10 10 7 7 8 9 10 11 12 12 13 14 14 15
19 20 19 20 20 19 17 17 18 17 18 18 15 15 16 14 15 17 16 15 13 14 12 14 14 13 13 14 12 10 9 7 6 7 8 9 9 9 10 11 12 13 14
19 17 16 15 20 24 22 20 19 18 18 18 18 18 18 17 17 16 17 17 17 15 16 14 13 13 15 15 14 14 12 11 9 8 8 8 8 8 7 8 9 10 11
13 12 8 6 55 29 20 21 22 22 19 20 21 22 21 21 20 19 19 20 18 18 17 16 15 16 16 17 15 15 16 14 12 11 10 10 9 9 8 8 7 7 7
22 25 17 21 37 22 29 29 21 24 23 21 22 23 23 21 22 21 19 21 23 22 20 19 18 17 18 20 21 18 15 15 17 15 14 14 14 13 12 11 9 8 6
18 24 30 20 10 23 19 20 29 28 24 25 25 23 22 24 24 25 26 24 24 25 24 21 21 23 22 22 19 19 18 17 17 18 18 17 16 15 14 15 12 10 8
16 19 23 23 19 19 17 20 22 23 20 21 26 27 25 22 24 25 28 27 27 28 25 24 24 24 22 24 20 22 21 21 17 13 18 18 17 18 16 16 18 13 12
18 20 21 16 17 14 27 15 14 19 25 27 24 27 27 25 25 24 26 28 28 30 30 27 23 22 22 23 19 16 21 20 16 16 16 19 17 18 16 16 22 17 17
19 20 14 15 15 17 16 15 19 15 25 26 23 27 26 27 28 25 25 24 24 27 27 25 25 23 26 25 20 18 19 20 20 19 21 17 16 17 16 16 18 17 18
19 17 13 16 18 15 13 15 24 27 24 22 22 27 30 30 27 26 29 26 26 28 24 24 26 27 25 26 24 24 21 23 22 20 21 22 19 16 16 17 16 20 20
Wind_Direction
52 57 61 67 93 95 102 99 97 89 84 78 71 67 65 71 79 73 64 80 86 87 84 81 81 73 73 85 96 100 107 98 95 88 85 74 73 155 183 194 202 198 192
59 52 63 73 76 95 112 112 112 102 94 83 78 72 68 66 74 84 69 62 62 65 64 68 75 75 68 83 129 131 81 172 89 72 77 89 90 97 160 180 200 208 200
31 68 80 74 68 102 133 128 124 115 113 99 82 73 67 68 70 76 86 75 51 64 67 67 73 79 81 64 62 123 110 86 75 69 75 86 97 112 116 156 187 200 198
218 60 99 81 83 90 125 146 147 152 127 109 101 82 77 67 65 68 76 84 88 65 67 75 75 69 69 71 72 82 92 95 85 83 88 90 90 103 118 136 153 175 191
241 169 185 207 92 109 175 182 165 156 140 121 100 94 77 73 68 67 71 74 81 86 69 68 77 77 74 65 70 85 105 95 93 100 91 89 89 92 101 129 152 171 189
245 227 247 218 144 200 177 239 190 168 153 142 114 99 86 77 75 70 69 69 77 76 81 86 64 71 77 68 87 79 98 89 96 93 87 90 85 90 91 119 151 170 185
251 238 227 235 218 225 212 159 174 180 158 158 124 114 93 81 76 74 72 76 75 79 76 79 92 76 48 67 90 74 95 102 95 106 91 92 82 77 87 90 110 147 171
236 229 218 233 222 229 232 177 171 196 190 180 157 138 138 110 83 78 72 75 82 81 75 81 77 85 83 76 85 95 86 80 93 96 93 95 95 82 84 81 88 98 124
234 232 232 210 236 240 252 231 208 189 226 221 192 168 158 103 130 87 84 82 84 87 80 74 78 80 83 83 63 85 90 91 85 102 102 105 104 97 86 82 84 87 96
229 232 233 243 240 226 231 238 230 206 199 218 226 236 238 162 176 148 121 105 89 96 96 91 82 84 77 78 91 114 106 108 107 92 86 107 119 113 94 84 85 88 93
234 237 244 247 245 230 239 230 232 224 216 208 221 272 250 234 253 158 145 156 118 108 105 103 103 96 91 85 89 92 96 94 109 115 105 90 92 120 117 95 93 93 97
249 245 241 250 247 236 238 237 236 242 215 217 224 234 265 254 222 164 137 155 157 141 129 123 114 108 98 94 98 86 89 95 102 103 103 106 110 119 134 119 106 103 103
242 243 245 247 243 246 249 246 242 227 237 238 243 235 260 270 219 177 166 164 159 156 151 147 138 125 116 112 101 92 95 101 103 105 108 103 98 102 122 141 138 129 118
245 241 249 242 250 247 249 247 250 245 246 248 242 235 233 270 223 197 185 175 162 167 178 180 167 152 137 133 116 105 101 102 107 112 111 106 106 104 109 113 119 130 117
240 245 240 243 245 247 249 249 244 244 242 249 245 241 230 240 241 196 217 201 206 172 180 192 172 175 162 151 136 140 120 113 114 114 114 113 115 114 112 112 108 110 108
246 239 252 250 252 253 254 254 250 245 245 247 244 245 236 208 244 208 213 210 204 184 164 182 180 178 170 165 163 149 140 128 127 121 115 112 112 113 116 114 108 106 104
246 255 256 260 258 258 260 261 259 242 244 239 232 224 231 220 221 238 208 208 208 201 184 164 174 184 183 166 179 167 152 151 145 140 129 123 116 113 116 113 117 116 114
257 260 264 262 264 266 265 259 256 252 248 246 239 227 228 233 226 221 215 209 211 206 200 177 182 192 190 183 190 185 171 178 178 166 156 141 135 132 129 123 120 109 100
256 258 265 275 291 277 268 266 261 256 250 242 234 229 226 225 227 224 222 215 212 205 199 190 190 192 191 191 195 194 190 192 188 203 191 182 172 162 154 142 130 117 105
251 249 219 22 341 307 262 267 265 260 250 245 242 240 227 223 226 222 223 216 209 205 200 195 194 193 193 201 200 198 206 202 199 220 218 210 204 203 201 186 164 149 128
239 245 250 322 356 287 256 266 270 258 252 246 245 246 239 228 230 222 220 221 213 211 208 199 202 197 198 201 210 205 210 211 214 210 219 223 225 223 221 221 206 188 181
252 263 279 281 295 296 262 261 264 262 250 252 248 243 240 238 236 235 225 226 225 221 205 206 209 206 209 215 210 209 206 208 213 223 215 221 222 225 223 235 224 215 215
270 262 274 246 267 286 282 282 262 244 245 254 251 248 238 233 238 235 223 226 231 224 220 221 215 216 214 223 220 216 213 214 215 222 226 220 222 225 227 231 244 231 230
287 271 265 260 274 286 279 270 244 252 249 246 260 243 240 234 230 225 222 223 222 223 225 225 225 220 216 230 228 239 236 223 219 210 233 213 221 228 228 228 246 239 237
285 291 286 251 275 273 269 259 228 259 252 239 249 241 238 238 233 230 219 215 216 218 226 226 222 215 221 223 225 212 212 212 215 217 226 211 219 225 226 230 242 241 239
291 295 271 245 257 256 274 255 247 249 255 239 251 241 239 239 237 232 225 218 215 217 220 221 220 225 226 225 222 224 214 211 217 220 224 217 213 222 231 235 231 243 238
Height
1587 1586 1585 1585 1583 1582 1582 1582 1582 1582 1582 1582 1581 1580 1579 1578 1578 1577 1574 1572 1571 1571 1570 1570 1569 1568 1568 1567 1567 1567 1567 1566 1566 1566 1566 1564 1563 1563 1564 1567 1572 1576 1580
1588 1588 1587 1586 1585 1583 1582 1584 1584 1584 1583 1583 1582 1582 1581 1580 1579 1580 1580 1576 1573 1572 1571 1570 1570 1569 1568 1567 1567 1567 1567 1567 1567 1567 1566 1566 1565 1564 1565 1567 1569 1572 1578
1587 1587 1588 1587 1586 1585 1583 1584 1585 1584 1584 1585 1585 1584 1583 1581 1580 1581 1581 1582 1577 1574 1573 1573 1572 1571 1570 1569 1567 1567 1567 1568 1568 1567 1567 1566 1565 1565 1566 1567 1569 1570 1575
1587 1588 1589 1588 1587 1587 1584 1586 1586 1586 1585 1585 1586 1586 1585 1584 1583 1582 1582 1582 1582 1581 1577 1576 1574 1574 1572 1571 1570 1569 1569 1570 1569 1570 1569 1568 1567 1566 1566 1567 1569 1570 1573
1587 1588 1589 1589 1588 1588 1588 1585 1585 1585 1585 1586 1586 1587 1587 1587 1587 1585 1583 1583 1583 1584 1582 1579 1578 1577 1576 1574 1573 1572 1572 1572 1572 1571 1571 1570 1569 1568 1568 1568 1568 1570 1573
1587 1587 1589 1588 1588 1589 1588 1585 1584 1586 1585 1586 1588 1588 1589 1589 1588 1588 1587 1586 1585 1585 1584 1584 1583 1580 1579 1577 1576 1576 1575 1574 1574 1574 1573 1572 1571 1570 1569 1569 1569 1570 1571
1586 1586 1588 1587 1588 1588 1587 1587 1586 1585 1586 1586 1587 1589 1590 1591 1590 1590 1589 1588 1587 1586 1586 1585 1586 1587 1582 1580 1579 1578 1578 1577 1576 1576 1575 1574 1574 1572 1571 1570 1570 1570 1571
1583 1584 1585 1586 1586 1586 1587 1586 1587 1587 1587 1586 1587 1589 1590 1593 1592 1592 1590 1589 1589 1589 1587 1586 1586 1586 1587 1584 1581 1580 1580 1579 1579 1577 1577 1577 1577 1576 1574 1573 1572 1571 1571
1581 1582 1583 1585 1585 1585 1585 1586 1587 1588 1589 1587 1587 1588 1588 1589 1592 1593 1592 1591 1589 1589 1588 1587 1587 1586 1587 1587 1586 1584 1583 1582 1581 1580 1579 1579 1578 1578 1577 1575 1574 1574 1573
1580 1582 1581 1582 1583 1585 1586 1584 1586 1587 1588 1588 1588 1587 1588 1589 1590 1593 1593 1592 1591 1591 1590 1591 1590 1589 1589 1587 1585 1583 1584 1583 1582 1582 1581 1580 1580 1580 1580 1579 1578 1577 1577
1577 1579 1580 1581 1581 1582 1583 1584 1584 1585 1587 1588 1589 1587 1588 1588 1589 1590 1591 1593 1592 1591 1591 1592 1592 1591 1590 1591 1588 1585 1584 1584 1583 1583 1582 1582 1582 1582 1583 1583 1583 1582 1581
1577 1575 1577 1577 1578 1579 1579 1580 1582 1582 1584 1586 1587 1588 1588 1587 1587 1590 1590 1591 1592 1592 1592 1593 1593 1593 1592 1590 1588 1587 1586 1585 1585 1584 1584 1583 1583 1583 1585 1585 1586 1586 1585
1574 1574 1572 1573 1574 1576 1577 1577 1578 1580 1580 1582 1583 1586 1587 1586 1585 1588 1590 1590 1591 1592 1593 1593 1593 1593 1594 1593 1590 1589 1588 1587 1587 1587 1586 1586 1586 1585 1586 1586 1587 1587 1587
1571 1572 1572 1571 1572 1573 1573 1574 1574 1576 1577 1578 1579 1582 1585 1584 1585 1588 1589 1589 1590 1591 1592 1593 1593 1594 1594 1594 1592 1591 1590 1589 1588 1588 1588 1588 1588 1588 1588 1588 1588 1588 1589
1568 1568 1568 1568 1568 1568 1569 1569 1571 1573 1574 1574 1576 1577 1580 1583 1582 1585 1587 1588 1588 1589 1591 1592 1592 1593 1593 1593 1593 1595 1593 1592 1591 1591 1590 1590 1590 1590 1590 1590 1591 1590 1590
1564 1566 1566 1566 1568 1568 1567 1567 1567 1569 1569 1570 1572 1574 1575 1578 1580 1581 1584 1586 1586 1586 1588 1590 1592 1591 1592 1594 1593 1595 1594 1594 1594 1593 1592 1592 1592 1592 1592 1592 1593 1592 1592
1561 1562 1564 1565 1566 1567 1566 1564 1564 1565 1565 1566 1568 1570 1573 1575 1577 1577 1581 1582 1583 1585 1587 1589 1590 1589 1591 1593 1593 1594 1594 1596 1595 1595 1594 1594 1594 1594 1594 1595 1595 1595 1594
1558 1561 1562 1562 1564 1563 1563 1562 1561 1563 1561 1561 1563 1566 1569 1571 1571 1573 1575 1578 1580 1581 1585 1585 1587 1587 1589 1591 1592 1594 1597 1599 1597 1595 1596 1596 1596 1596 1596 1597 1596 1596 1596
1555 1557 1560 1563 1566 1562 1559 1558 1558 1558 1558 1559 1560 1562 1564 1566 1568 1570 1571 1575 1577 1578 1579 1582 1584 1586 1587 1589 1590 1592 1594 1598 1598 1596 1596 1597 1597 1597 1598 1598 1597 1597 1597
1552 1553 1550 1552 1553 1547 1550 1549 1551 1552 1553 1554 1554 1554 1557 1560 1562 1565 1567 1569 1573 1575 1576 1579 1581 1584 1585 1586 1589 1590 1591 1594 1596 1596 1596 1596 1597 1597 1597 1598 1598 1598 1597
1540 1540 1536 1536 1534 1530 1536 1538 1542 1543 1545 1548 1549 1549 1551 1553 1555 1558 1562 1564 1566 1569 1572 1574 1578 1580 1582 1582 1583 1587 1590 1591 1592 1595 1597 1596 1595 1596 1596 1596 1597 1597 1598
1534 1531 1529 1525 1517 1516 1521 1526 1531 1536 1538 1540 1542 1544 1546 1548 1550 1552 1554 1558 1560 1564 1567 1569 1573 1573 1576 1578 1580 1584 1586 1589 1590 1589 1592 1594 1596 1596 1596 1594 1595 1596 1596
1527 1525 1524 1523 1520 1523 1521 1521 1522 1527 1528 1532 1533 1536 1539 1541 1543 1545 1548 1552 1555 1558 1562 1564 1567 1568 1571 1572 1575 1578 1581 1583 1585 1587 1586 1590 1592 1593 1594 1595 1592 1593 1594
1522 1520 1521 1520 1519 1519 1514 1518 1521 1520 1519 1523 1526 1528 1531 1534 1537 1540 1541 1545 1548 1551 1555 1558 1560 1564 1566 1567 1570 1573 1576 1579 1582 1585 1582 1586 1588 1589 1591 1592 1590 1590 1591
1520 1518 1516 1517 1515 1515 1517 1517 1516 1516 1515 1517 1519 1522 1526 1527 1530 1535 1537 1539 1542 1544 1547 1552 1555 1557 1560 1561 1565 1568 1570 1575 1577 1579 1579 1581 1584 1585 1586 1588 1588 1586 1587
1516 1513 1513 1514 1513 1513 1513 1514 1516 1515 1513 1514 1513 1516 1520 1521 1523 1528 1531 1534 1536 1538 1541 1545 1548 1551 1554 1556 1559 1561 1564 1567 1571 1574 1575 1576 1579 1582 1582 1583 1584 1583 1582